Weather History for Vinton, IA

Change the Weather History Date:

Tuesday, December 18, 2012

  Actual Average Record
Temperature  
Mean Temperature 30 °F -  
Max Temperature 34 °F 30 °F 60 °F (2002)
Min Temperature 25 °F 15 °F -18 °F (1983)
Degree Days  
Heating Degree Days 36    
Moisture  
Dew Point 28 °F    
Average Humidity 89    
Maximum Humidity 94    
Minimum Humidity 85    
Precipitation  
Precipitation 0.00 in - - ()
Sea Level Pressure  
Sea Level Pressure 29.68 in    
Wind  
Wind Speed 6 mph (East)    
Max Wind Speed 13 mph    
Max Gust Speed -    
Visibility 4 miles    
Events      
Averages and records for this station are not official NWS values.
T = Trace of Precipitation, MM = Missing Value Source: NWS Daily Summary

Daily Weather History Graph

Daily Weather History Graph

Search for Another Location

Airport:

Trip Planner

Search our weather history database for the weather conditions in past years. The results will help you decide how hot, cold, wet, or windy it might be!

Date:

Astronomy

Dec. 18, 2012 Rise Set
Actual Time 7:32 AM CST 4:37 PM CST
Civil Twilight 7:00 AM CST 5:09 PM CST
Nautical Twilight 6:24 AM CST 5:45 PM CST
Astronomical Twilight 5:50 AM CST 6:19 PM CST
Moon 11:06 AM CST (12/18) 11:10 PM CST (12/18)
Length of Visible Light 10h 09m
Length of Day
9h 05m
Waxing Crescent, 35% of the Moon is Illuminated
Dec 18
Waxing Crescent
Dec 19
First Quarter
Dec 28
Full
Jan 4
Last Quarter
Jan 11
New

Hourly Weather History & Observations

Time (CST) Temp. Windchill Dew Point Humidity Pressure Visibility Wind Dir Wind Speed Gust Speed Precip Events Conditions
12:15 AM 25.3 °F 21.1 °F 22.8 °F 90% 29.73 in 4.0 mi SSE 3.5 mph - N/A   Overcast
12:35 AM 26.4 °F 20.9 °F 23.9 °F 90% 29.72 in 4.0 mi SE 4.6 mph - N/A   Mostly Cloudy
12:55 AM 27.5 °F 22.2 °F 25.2 °F 91% 29.72 in 5.0 mi SE 4.6 mph - N/A   Overcast
1:15 AM 27.5 °F 22.2 °F 24.8 °F 90% 29.72 in 5.0 mi ESE 4.6 mph - N/A   Overcast
1:35 AM 27.5 °F 22.2 °F 24.8 °F 90% 29.72 in 5.0 mi SE 4.6 mph - N/A   Overcast
1:55 AM 27.5 °F 23.6 °F 24.8 °F 90% 29.71 in 4.0 mi SE 3.5 mph - N/A   Overcast
2:15 AM 27.5 °F 22.2 °F 24.8 °F 90% 29.71 in 5.0 mi ESE 4.6 mph - N/A   Overcast
2:35 AM 27.5 °F 22.2 °F 24.8 °F 90% 29.71 in 5.0 mi SE 4.6 mph - N/A   Overcast
2:55 AM 27.5 °F 21.1 °F 24.8 °F 90% 29.71 in 4.0 mi SE 5.8 mph - N/A   Overcast
3:15 AM 27.5 °F 21.1 °F 24.8 °F 90% 29.69 in 5.0 mi SE 5.8 mph - N/A   Overcast
3:35 AM 27.5 °F 21.1 °F 24.6 °F 89% 29.68 in 4.0 mi SE 5.8 mph - N/A   Mostly Cloudy
3:55 AM 27.5 °F 18.6 °F 24.6 °F 89% 29.67 in 4.0 mi SE 9.2 mph - N/A   Scattered Clouds
4:15 AM 27.5 °F 21.1 °F 24.8 °F 90% 29.67 in 4.0 mi SE 5.8 mph - N/A   Scattered Clouds
4:35 AM 27.5 °F 21.1 °F 24.8 °F 90% 29.67 in 4.0 mi SE 5.8 mph - N/A   Scattered Clouds
4:55 AM 27.5 °F 20.2 °F 24.8 °F 90% 29.65 in 3.0 mi ESE 6.9 mph - N/A   Scattered Clouds
5:15 AM 27.5 °F 19.3 °F 25.2 °F 91% 29.64 in 3.0 mi ESE 8.1 mph - N/A   Mostly Cloudy
5:35 AM 27.5 °F 20.2 °F 25.2 °F 91% 29.64 in 3.0 mi ESE 6.9 mph - N/A   Overcast
5:55 AM 27.9 °F 19.8 °F 25.3 °F 90% 29.63 in 3.0 mi ESE 8.1 mph - N/A   Overcast
6:15 AM 28.2 °F 20.2 °F 25.7 °F 90% 29.62 in 3.0 mi ESE 8.1 mph - N/A   Mist
6:35 AM 28.9 °F 20.4 °F 26.6 °F 91% 29.61 in 3.0 mi ESE 9.2 mph - N/A   Mist
6:55 AM 28.2 °F 18.3 °F 25.7 °F 90% 29.59 in 2.5 mi ESE 11.5 mph - N/A   Mist
7:15 AM 28.9 °F 19.8 °F 26.6 °F 91% 29.59 in 3.0 mi ESE 10.4 mph - N/A   Mist
7:35 AM 30.2 °F 20.2 °F 27.9 °F 91% 29.57 in 3.0 mi ESE 12.7 mph - N/A   Mist
7:55 AM 30.2 °F 21.3 °F 27.9 °F 91% 29.56 in 2.5 mi ESE 10.4 mph - N/A   Mist
8:15 AM 30.2 °F 21.9 °F 27.5 °F 90% 29.56 in 2.0 mi East 9.2 mph - N/A   Overcast
8:35 AM 30.2 °F 22.6 °F 27.5 °F 90% 29.58 in 2.5 mi East 8.1 mph - N/A   Overcast
8:55 AM 32.4 °F 25.3 °F 29.8 °F 90% 29.57 in 3.0 mi ESE 8.1 mph - N/A   Overcast
9:15 AM 32.4 °F 23.5 °F 29.8 °F 90% 29.54 in 2.5 mi SE 11.5 mph - N/A   Overcast
9:35 AM 32.4 °F 24.0 °F 29.7 °F 90% 29.54 in 2.5 mi SE 10.4 mph - N/A   Overcast
9:55 AM 32.4 °F 24.0 °F 29.3 °F 88% 29.54 in 2.5 mi SE 10.4 mph - N/A   Overcast
10:15 AM 32.4 °F 24.6 °F 29.1 °F 88% 29.54 in 3.0 mi SSE 9.2 mph - N/A   Overcast
10:35 AM 32.4 °F 25.3 °F 29.1 °F 88% 29.54 in 3.0 mi SE 8.1 mph - N/A   Overcast
10:55 AM 32.4 °F 26.9 °F 29.1 °F 88% 29.55 in 3.0 mi SSE 5.8 mph - N/A   Overcast
11:15 AM 32.4 °F 26.9 °F 29.1 °F 88% 29.54 in 3.0 mi SSE 5.8 mph - N/A   Overcast
11:35 AM 33.4 °F 27.3 °F 30.0 °F 87% 29.53 in 3.0 mi SE 6.9 mph - N/A   Overcast
11:55 AM 34.2 °F 29.0 °F 30.6 °F 87% 29.53 in 3.0 mi SSE 5.8 mph - N/A   Overcast
12:15 PM 34.9 °F 32.0 °F 31.1 °F 86% 29.53 in 3.0 mi SSE 3.5 mph - N/A   Overcast
12:35 PM 34.9 °F - 30.9 °F 85% 29.54 in 4.0 mi Calm Calm - N/A   Overcast
12:55 PM 34.3 °F 30.2 °F 30.4 °F 85% 29.54 in 3.0 mi North 4.6 mph - N/A   Overcast
1:15 PM 32.9 °F - 30.0 °F 89% 29.54 in 2.5 mi Calm Calm - N/A   Overcast
1:35 PM 33.8 °F 30.8 °F 30.9 °F 89% 29.54 in 1.8 mi North 3.5 mph - N/A   Overcast
1:55 PM 33.8 °F 30.8 °F 31.1 °F 90% 29.56 in 2.0 mi NW 3.5 mph - N/A   Overcast
2:15 PM 33.4 °F 29.1 °F 31.3 °F 92% 29.57 in 1.5 mi NW 4.6 mph - N/A   Overcast
2:35 PM 32.4 °F 26.0 °F 30.2 °F 92% 29.58 in 1.0 mi NNW 6.9 mph - N/A   Overcast
2:55 PM 32.4 °F 26.9 °F 30.6 °F 93% 29.60 in 1.0 mi NNW 5.8 mph - N/A   Overcast
3:15 PM 32.4 °F 25.3 °F 30.6 °F 93% 29.61 in 1.0 mi North 8.1 mph - N/A   Overcast
3:35 PM 32.4 °F 25.3 °F 30.7 °F 94% 29.63 in 1.5 mi North 8.1 mph - N/A   Overcast
3:55 PM 32.4 °F 25.3 °F 30.6 °F 93% 29.66 in 2.0 mi NNW 8.1 mph - N/A   Overcast
4:15 PM 32.4 °F 26.0 °F 30.6 °F 93% 29.67 in 2.5 mi NNW 6.9 mph - N/A   Overcast
4:35 PM 32.4 °F 24.6 °F 30.6 °F 93% 29.68 in 3.0 mi NNW 9.2 mph - N/A   Overcast
4:55 PM 32.4 °F 26.0 °F 30.4 °F 92% 29.70 in 5.0 mi NW 6.9 mph - N/A   Overcast
5:15 PM 32.4 °F 25.3 °F 30.2 °F 92% 29.72 in 5.0 mi NW 8.1 mph - N/A   Overcast
5:35 PM 32.4 °F 24.6 °F 29.8 °F 90% 29.75 in 7.0 mi NW 9.2 mph - N/A   Overcast
5:55 PM 32.4 °F 24.6 °F 29.8 °F 90% 29.75 in 5.0 mi NNW 9.2 mph - N/A   Overcast
6:15 PM 32.4 °F 25.3 °F 29.8 °F 90% 29.77 in 5.0 mi NW 8.1 mph - N/A   Overcast
6:35 PM 32.4 °F 24.0 °F 29.7 °F 90% 29.78 in 5.0 mi NNW 10.4 mph - N/A   Overcast
6:55 PM 32.4 °F 25.3 °F 29.3 °F 88% 29.80 in 5.0 mi NW 8.1 mph - N/A   Overcast
7:15 PM 32.4 °F 24.0 °F 29.1 °F 88% 29.81 in 5.0 mi NNW 10.4 mph - N/A   Overcast
7:35 PM 32.4 °F 25.3 °F 28.8 °F 87% 29.80 in 5.0 mi NNW 8.1 mph - N/A   Overcast
7:55 PM 32.4 °F 26.0 °F 28.4 °F 85% 29.81 in 5.0 mi NNW 6.9 mph - N/A   Overcast
8:15 PM 32.4 °F 24.6 °F 28.9 °F 87% 29.83 in 5.0 mi NW 9.2 mph - N/A   Overcast
8:35 PM 32.4 °F 25.3 °F 28.9 °F 87% 29.84 in 4.0 mi NW 8.1 mph - N/A   Overcast
8:55 PM 31.8 °F 24.6 °F 28.0 °F 86% 29.84 in 4.0 mi WNW 8.1 mph - N/A   Overcast
9:15 PM 30.4 °F 22.2 °F 26.4 °F 85% 29.85 in 4.0 mi WNW 9.2 mph - N/A   Overcast
9:35 PM 30.9 °F 22.8 °F 27.3 °F 86% 29.86 in 4.0 mi WNW 9.2 mph - N/A   Overcast
9:55 PM 30.9 °F 22.8 °F 27.3 °F 86% 29.87 in 4.0 mi WNW 9.2 mph - N/A   Overcast
10:15 PM 32.4 °F 24.0 °F 29.1 °F 88% 29.87 in 4.0 mi NW 10.4 mph - N/A   Overcast
10:35 PM 32.0 °F 24.8 °F 28.4 °F 87% 29.88 in 4.0 mi WNW 8.1 mph - N/A   Overcast
10:55 PM 32.2 °F 26.7 °F 29.1 °F 88% 29.89 in 4.0 mi NW 5.8 mph - N/A   Overcast
11:15 PM 30.2 °F - 26.8 °F 87% 29.89 in 4.0 mi Calm Calm - N/A   Overcast
11:35 PM 30.2 °F - 26.6 °F 86% 29.88 in 4.0 mi Calm Calm - N/A   Overcast
11:55 PM 30.2 °F - 26.6 °F 86% 29.89 in 4.0 mi Calm Calm - N/A   Overcast